THOR ABLESTAR DEB, 405

Orbit data source: Space-Track

THOR ABLESTAR DEB, 405 is space debris in LEO originally from a launch on Thu, 29 Jun 1961 UTC launched from the Air Force Eastern Test Range (AFETR). Debris objects in space refer to the collection of defunct objects orbiting the Earth. Examples of debris include non-operational satellites, rocket bodies, and fragments generated from explosions, collisions, or faulty payload assembly.

Loading next visibility...
Identifier
405, 1961-015EE
Orbit
LEO
Last TLE update
18 hours ago
Origin
Manufacturer
Unknown
Mission
Spacecraft
Bus & Motor
Unknown
Mass
Unknown
Launch date (UTC)
1961-06-29 (64 years ago)
Launch vehicle
Unknown
Launch site
Air Force Eastern Test Range (AFETR)
Object type
Payload
Rocket body
Debris
Shape & HBR
Unknown
Radar Cross Section
Small (<0.1 m²)

Expand to show TLE details & history

TLE from 18 hours ago
0 THOR ABLESTAR DEB
1 00405U 61015EE  25188.53531274  .00000141  00000-0  24976-3 0  9993
2 00405  66.8921 247.4959 0079289  54.0261  62.0127 13.66561399185052
Epoch: 2025-07-07T12:50Z
TLE epoch observation values (Epoch: 2025-07-07T12:50:51.02Z)
Latitude
55.26567°
Longitude
-88.71216°
Altitude
993.135 km
Speed
7.374 km/s
True Right ascension
01h 58m 58s
True Declination
55° 06' 35"
Sunlit
Object was in daylight at epoch
Visualization orbit readout
Latitude
22.53261°
Longitude
-62.82983°
Altitude
1,025.467 km
Speed
7.336 km/s
Apparent Right ascension
04h 56m 22s
Apparent Declination
-6° 32' 49"
Sunlit
Object is in daylight
Visualization observer readout
Local Sidereal Time
18:41:25
Azimuth
42.23° NE
Elevation
-49.157°
Doppler factor
1
Orbital elements
Apogee altitude
1,068.926 km
Perigee altitude
951.761 km
Semi-major axis
7,388.481 km
Eccentricity
0.00793
Inclination
66.8921°
RAAN
247.4959°
Arg. of periapsis
54.0261°
True anomaly
Unknown
Mean anomaly
62.0127°
Eccentric anomaly
Unknown
Mean motion
3.41752 °/min
Orbital period
105.34 mins
BSTAR
0.00024976
Loading maneuver chart data...
Loading SW <> Apogee altitude chart data...

THOR ABLESTAR DEB Visibility forecast

Observer location: undefined°, undefined°

Span
Click to sort rows by Start time (UTC) header in descending order
Start Az.
Max El. time (UTC)
Max El. Az.
Max El.
End time (UTC)
End Az.
4 mins2025-07-08 07:52:00.169Z303.063° NW2025-07-08 07:54:00.169Z323.296° NNW13.112°2025-07-08 07:56:00.169Z343.553° N
9 mins2025-07-08 13:25:00.169Z357.797° N2025-07-08 13:29:00.169Z44.951° NE24.886°2025-07-08 13:34:00.169Z101.609° ESE
11 mins2025-07-08 15:13:00.169Z319.904° NNW2025-07-08 15:18:00.169Z242.066° WSW40.191°2025-07-08 15:24:00.169Z170.247° S
9 mins2025-07-09 04:49:00.169Z177.749° S2025-07-09 04:53:00.169Z111.052° ESE37.306°2025-07-09 04:58:00.169Z42.061° NE
|